Weather History for South Lake Tahoe, CA

Change the Weather History Date:

Tuesday, October 1, 2013

  Actual Average Record
Temperature  
Mean Temperature 53 °F 50 °F  
Max Temperature 68 °F 69 °F 82 °F (1988)
Min Temperature 37 °F 31 °F 19 °F (1971)
Degree Days  
Heating Degree Days 12 15  
Month to date heating degree days 12 15  
Since 1 July heating degree days 440 641  
Cooling Degree Days 0 0  
Month to date cooling degree days 0 0  
Year to date cooling degree days 104 31  
Growing Degree Days 4 (Base 50)    
Moisture  
Dew Point 32 °F    
Average Humidity 46    
Maximum Humidity 70    
Minimum Humidity 22    
Precipitation  
Precipitation 0.00 in - 0.71 in (1939)
Month to date precipitation 0.00  
Year to date precipitation 7.15  
Sea Level Pressure  
Sea Level Pressure 29.95 in    
Wind  
Wind Speed 9 mph (SSW)    
Max Wind Speed 20 mph    
Max Gust Speed 28 mph    
Visibility 10 miles    
Events      
T = Trace of Precipitation, MM = Missing Value Source: NWS Daily Summary

Daily Weather History Graph

Daily Weather History Graph

Search for Another Location

Airport:

Trip Planner

Search our weather history database for the weather conditions in past years. The results will help you decide how hot, cold, wet, or windy it might be!

Date:

Astronomy

Oct. 01, 2013 Rise Set
Actual Time 6:56 AM PDT 6:42 PM PDT
Civil Twilight 6:29 AM PDT 7:08 PM PDT
Nautical Twilight 5:58 AM PDT 7:39 PM PDT
Astronomical Twilight 5:27 AM PDT 8:10 PM PDT
Moon 3:36 AM PDT (10/1) 4:47 PM PDT (10/1)
Length of Visible Light 12h 39m
Length of Day
11h 45m
Waning Crescent, 11% of the Moon is Illuminated
Oct 1
Waning Crescent
Oct 4
New
Oct 11
First Quarter
Oct 18
Full
Oct 26
Last Quarter

Hourly Weather History & Observations

Time (PDT) Temp. Windchill Dew Point Humidity Pressure Visibility Wind Dir Wind Speed Gust Speed Precip Events Conditions
12:53 AM 52.0 °F - 24.1 °F 34% 29.96 in 10.0 mi South 8.1 mph - N/A   Clear
1:53 AM 54.0 °F - 24.1 °F 31% 29.95 in 10.0 mi SSW 13.8 mph - N/A   Clear
2:53 AM 54.0 °F - 28.9 °F 38% 29.94 in 10.0 mi SSW 11.5 mph 21.9 mph N/A   Clear
3:53 AM 54.0 °F - 33.1 °F 45% 29.94 in 10.0 mi SSW 10.4 mph - N/A   Clear
4:53 AM 50.0 °F - 34.0 °F 54% 29.95 in 10.0 mi SW 6.9 mph - N/A   Clear
5:53 AM 50.0 °F - 34.0 °F 54% 29.95 in 10.0 mi SW 8.1 mph - N/A   Clear
6:53 AM 51.1 °F - 36.0 °F 56% 29.96 in 10.0 mi SW 6.9 mph - N/A   Clear
7:53 AM 53.1 °F - 37.0 °F 55% 29.96 in 10.0 mi SSW 9.2 mph - N/A   Clear
8:53 AM 57.9 °F - 35.1 °F 42% 29.96 in 10.0 mi SSW 9.2 mph - N/A   Clear
9:53 AM 61.0 °F - 34.0 °F 36% 29.95 in 10.0 mi SSW 13.8 mph 23.0 mph N/A   Clear
10:53 AM 63.0 °F - 32.0 °F 31% 29.94 in 10.0 mi South 11.5 mph 19.6 mph N/A   Clear
11:53 AM 64.9 °F - 27.0 °F 24% 29.94 in 10.0 mi South 12.7 mph 19.6 mph N/A   Clear
12:53 PM 66.0 °F - 27.0 °F 23% 29.94 in 10.0 mi South 13.8 mph 23.0 mph N/A   Clear
1:53 PM 66.9 °F - 27.0 °F 22% 29.92 in 10.0 mi South 15.0 mph 19.6 mph N/A   Clear
2:53 PM 66.9 °F - 26.1 °F 21% 29.91 in 10.0 mi Variable 6.9 mph 23.0 mph N/A   Clear
3:53 PM 64.9 °F - 27.0 °F 24% 29.92 in 10.0 mi SW 11.5 mph 21.9 mph N/A   Clear
4:53 PM 64.9 °F - 30.0 °F 27% 29.93 in 10.0 mi SSW 10.4 mph - N/A   Clear
5:53 PM 61.0 °F - 35.1 °F 38% 29.95 in 10.0 mi SW 6.9 mph - N/A   Clear
6:53 PM 57.0 °F - 37.9 °F 49% 29.96 in 10.0 mi SW 5.8 mph - N/A   Clear
7:53 PM 55.0 °F - 42.1 °F 62% 29.95 in 10.0 mi SSW 9.2 mph - N/A   Clear
8:53 PM 51.1 °F - 37.9 °F 61% 29.96 in 10.0 mi Calm Calm - N/A   Clear
9:53 PM 46.0 °F - 36.0 °F 68% 29.98 in 10.0 mi Calm Calm - N/A   Clear
10:53 PM 42.1 °F - 34.0 °F 73% 29.98 in 10.0 mi Calm Calm - N/A   Clear
11:53 PM 39.9 °F 37.8 °F 30.0 °F 68% 29.98 in 10.0 mi SSW 3.5 mph - N/A   Clear